Year,Month,Day,Hour,Minute,Value (Times are PST for temperature in C)
2006,04,25,00,00,14.00
2006,04,25,00,01,14.00
2006,04,25,00,02,14.00
2006,04,25,00,03,14.00
2006,04,25,00,04,14.00
2006,04,25,00,05,14.00
2006,04,25,00,06,14.00
2006,04,25,00,07,14.00
2006,04,25,00,08,14.00
2006,04,25,00,09,14.00
2006,04,25,00,10,13.90
2006,04,25,00,11,13.90
2006,04,25,00,12,13.80
2006,04,25,00,13,13.80
2006,04,25,00,14,13.80
2006,04,25,00,15,13.80
2006,04,25,00,16,13.70
2006,04,25,00,17,13.70
2006,04,25,00,18,13.70
2006,04,25,00,19,13.70
2006,04,25,00,20,13.70
2006,04,25,00,21,13.70
2006,04,25,00,22,13.70
2006,04,25,00,23,13.70
2006,04,25,00,24,13.70
2006,04,25,00,25,13.70
2006,04,25,00,26,13.70
2006,04,25,00,27,13.70
2006,04,25,00,28,13.70
2006,04,25,00,29,13.70
2006,04,25,00,30,13.70
2006,04,25,00,31,13.70
2006,04,25,00,32,13.70
2006,04,25,00,33,13.60
2006,04,25,00,34,13.60
2006,04,25,00,35,13.60
2006,04,25,00,36,13.60
2006,04,25,00,37,13.60
2006,04,25,00,38,13.50
2006,04,25,00,39,13.50
2006,04,25,00,40,13.40
2006,04,25,00,41,13.30
2006,04,25,00,42,13.30
2006,04,25,00,43,13.30
2006,04,25,00,44,13.30
2006,04,25,00,45,13.30
2006,04,25,00,46,13.20
2006,04,25,00,47,13.20
2006,04,25,00,48,13.20
2006,04,25,00,49,13.30
2006,04,25,00,50,13.30
2006,04,25,00,51,13.30
2006,04,25,00,52,13.20
2006,04,25,00,53,13.20
2006,04,25,00,54,13.20
2006,04,25,00,55,13.20
2006,04,25,00,56,13.10
2006,04,25,00,57,13.10
2006,04,25,00,58,13.10
2006,04,25,00,59,13.10
2006,04,25,01,00,13.10
2006,04,25,01,01,13.00
2006,04,25,01,02,13.00
2006,04,25,01,03,13.00
2006,04,25,01,04,12.90
2006,04,25,01,05,12.90
2006,04,25,01,06,12.80
2006,04,25,01,07,12.80
2006,04,25,01,08,12.80
2006,04,25,01,09,12.80
2006,04,25,01,10,12.80
2006,04,25,01,11,12.90
2006,04,25,01,12,12.90
2006,04,25,01,13,12.90
2006,04,25,01,14,12.80
2006,04,25,01,15,12.80
2006,04,25,01,16,12.80
2006,04,25,01,17,12.80
2006,04,25,01,18,12.80
2006,04,25,01,19,12.80
2006,04,25,01,20,12.80
2006,04,25,01,21,12.80
2006,04,25,01,22,12.80
2006,04,25,01,23,12.80
2006,04,25,01,24,12.80
2006,04,25,01,25,12.80
2006,04,25,01,26,12.80
2006,04,25,01,27,12.70
2006,04,25,01,28,12.70
2006,04,25,01,29,12.70
2006,04,25,01,30,12.70
2006,04,25,01,31,12.70
2006,04,25,01,32,12.70
2006,04,25,01,33,12.80
2006,04,25,01,34,12.80
2006,04,25,01,35,12.80
2006,04,25,01,36,12.80
2006,04,25,01,37,12.80
2006,04,25,01,38,12.70
2006,04,25,01,39,12.70
2006,04,25,01,40,12.70
2006,04,25,01,41,12.70
2006,04,25,01,42,12.70
2006,04,25,01,43,12.70
2006,04,25,01,44,12.60
2006,04,25,01,45,12.60
2006,04,25,01,46,12.50
2006,04,25,01,47,12.50
2006,04,25,01,48,12.40
2006,04,25,01,49,12.30
2006,04,25,01,50,12.30
2006,04,25,01,51,12.30
2006,04,25,01,52,12.30
2006,04,25,01,53,12.30
2006,04,25,01,54,12.30
2006,04,25,01,55,12.20
2006,04,25,01,56,12.20
2006,04,25,01,57,12.20
2006,04,25,01,58,12.20
2006,04,25,01,59,12.10
2006,04,25,02,00,12.10
2006,04,25,02,01,12.10
2006,04,25,02,02,12.00
2006,04,25,02,03,12.00
2006,04,25,02,04,11.90
2006,04,25,02,05,11.80
2006,04,25,02,06,11.80
2006,04,25,02,07,11.70
2006,04,25,02,08,11.60
2006,04,25,02,09,11.40
2006,04,25,02,10,11.40
2006,04,25,02,11,11.30
2006,04,25,02,12,11.20
2006,04,25,02,13,11.10
2006,04,25,02,14,11.10
2006,04,25,02,15,11.00
2006,04,25,02,16,10.90
2006,04,25,02,17,10.90
2006,04,25,02,18,11.10
2006,04,25,02,19,11.20
2006,04,25,02,20,11.30
2006,04,25,02,21,11.40
2006,04,25,02,22,11.50
2006,04,25,02,23,11.70
2006,04,25,02,24,11.70
2006,04,25,02,25,11.80
2006,04,25,02,26,11.80
2006,04,25,02,27,11.80
2006,04,25,02,28,11.80
2006,04,25,02,29,11.80
2006,04,25,02,30,11.70
2006,04,25,02,31,11.50
2006,04,25,02,32,11.40
2006,04,25,02,33,11.30
2006,04,25,02,34,11.20
2006,04,25,02,35,11.00
2006,04,25,02,36,10.90
2006,04,25,02,37,10.80
2006,04,25,02,38,10.70
2006,04,25,02,39,10.60
2006,04,25,02,40,10.60
2006,04,25,02,41,10.60
2006,04,25,02,42,10.50
2006,04,25,02,43,10.40
2006,04,25,02,44,10.40
2006,04,25,02,45,10.40
2006,04,25,02,46,10.40
2006,04,25,02,47,10.40
2006,04,25,02,48,10.40
2006,04,25,02,49,10.50
2006,04,25,02,50,10.60
2006,04,25,02,51,10.70
2006,04,25,02,52,10.80
2006,04,25,02,53,10.90
2006,04,25,02,54,11.00
2006,04,25,02,55,11.10
2006,04,25,02,56,11.20
2006,04,25,02,57,11.20
2006,04,25,02,58,11.20
2006,04,25,02,59,11.20
2006,04,25,03,00,11.20
2006,04,25,03,01,11.20
2006,04,25,03,02,11.30
2006,04,25,03,03,11.20
2006,04,25,03,04,11.20
2006,04,25,03,05,11.20
2006,04,25,03,06,11.20
2006,04,25,03,07,11.20
2006,04,25,03,08,11.20
2006,04,25,03,09,11.10
2006,04,25,03,10,11.10
2006,04,25,03,11,11.10
2006,04,25,03,12,11.10
2006,04,25,03,13,11.20
2006,04,25,03,14,11.20
2006,04,25,03,15,11.20
2006,04,25,03,16,11.20
2006,04,25,03,17,11.10
2006,04,25,03,18,11.10
2006,04,25,03,19,11.00
2006,04,25,03,20,10.90
2006,04,25,03,21,10.80
2006,04,25,03,22,10.70
2006,04,25,03,23,10.60
2006,04,25,03,24,10.40
2006,04,25,03,25,10.40
2006,04,25,03,26,10.30
2006,04,25,03,27,10.40
2006,04,25,03,28,10.40
2006,04,25,03,29,10.40
2006,04,25,03,30,10.50
2006,04,25,03,31,10.60
2006,04,25,03,32,10.60
2006,04,25,03,33,10.70
2006,04,25,03,34,10.80
2006,04,25,03,35,10.80
2006,04,25,03,36,10.90
2006,04,25,03,37,11.00
2006,04,25,03,38,11.10
2006,04,25,03,39,11.10
2006,04,25,03,40,11.10
2006,04,25,03,41,11.20
2006,04,25,03,42,11.20
2006,04,25,03,43,11.20
2006,04,25,03,44,11.20
2006,04,25,03,45,11.20
2006,04,25,03,46,11.20
2006,04,25,03,47,11.20
2006,04,25,03,48,11.10
2006,04,25,03,49,11.10
2006,04,25,03,50,11.10
2006,04,25,03,51,10.90
2006,04,25,03,52,10.80
2006,04,25,03,53,10.70
2006,04,25,03,54,10.70
2006,04,25,03,55,10.60
2006,04,25,03,56,10.60
2006,04,25,03,57,10.50
2006,04,25,03,58,10.40
2006,04,25,03,59,10.40
2006,04,25,04,00,10.40
2006,04,25,04,01,10.40
2006,04,25,04,02,10.30
2006,04,25,04,03,10.30
2006,04,25,04,04,10.30
2006,04,25,04,05,10.30
2006,04,25,04,06,10.20
2006,04,25,04,07,10.20
2006,04,25,04,08,10.20
2006,04,25,04,09,10.10
2006,04,25,04,10,10.10
2006,04,25,04,11,10.10
2006,04,25,04,12,10.10
2006,04,25,04,13,10.10
2006,04,25,04,14,10.10
2006,04,25,04,15,10.10
2006,04,25,04,16,10.10
2006,04,25,04,17,10.10
2006,04,25,04,18,10.10
2006,04,25,04,19,10.10
2006,04,25,04,20,10.10
2006,04,25,04,21,10.10
2006,04,25,04,22,10.10
2006,04,25,04,23,10.10
2006,04,25,04,24,10.10
2006,04,25,04,25,10.10
2006,04,25,04,26,10.10
2006,04,25,04,27,10.10
2006,04,25,04,28,10.00
2006,04,25,04,29,9.90
2006,04,25,04,30,9.90
2006,04,25,04,31,9.80
2006,04,25,04,32,9.70
2006,04,25,04,33,9.60
2006,04,25,04,34,9.50
2006,04,25,04,35,9.40
2006,04,25,04,36,9.30
2006,04,25,04,37,9.20
2006,04,25,04,38,9.20
2006,04,25,04,39,9.10
2006,04,25,04,40,9.10
2006,04,25,04,41,9.00
2006,04,25,04,42,9.00
2006,04,25,04,43,9.00
2006,04,25,04,44,9.00
2006,04,25,04,45,8.90
2006,04,25,04,46,8.90
2006,04,25,04,47,8.90
2006,04,25,04,48,8.90
2006,04,25,04,49,8.90
2006,04,25,04,50,9.00
2006,04,25,04,51,9.00
2006,04,25,04,52,9.00
2006,04,25,04,53,9.00
2006,04,25,04,54,9.00
2006,04,25,04,55,9.00
2006,04,25,04,56,8.90
2006,04,25,04,57,8.90
2006,04,25,04,58,8.90
2006,04,25,04,59,8.90
2006,04,25,05,00,8.90
2006,04,25,05,01,8.90
2006,04,25,05,02,8.80
2006,04,25,05,03,8.80
2006,04,25,05,04,8.80
2006,04,25,05,05,8.80
2006,04,25,05,06,8.80
2006,04,25,05,07,8.80
2006,04,25,05,08,8.70
2006,04,25,05,09,8.70
2006,04,25,05,10,8.70
2006,04,25,05,11,8.70
2006,04,25,05,12,8.70
2006,04,25,05,13,8.60
2006,04,25,05,14,8.60
2006,04,25,05,15,8.60
2006,04,25,05,16,8.60
2006,04,25,05,17,8.60
2006,04,25,05,18,8.60
2006,04,25,05,19,8.60
2006,04,25,05,20,8.70
2006,04,25,05,21,8.70
2006,04,25,05,22,8.70
2006,04,25,05,23,8.70
2006,04,25,05,24,8.70
2006,04,25,05,25,8.60
2006,04,25,05,26,8.50
2006,04,25,05,27,8.40
2006,04,25,05,28,8.20
2006,04,25,05,29,8.10
2006,04,25,05,30,8.00
2006,04,25,05,31,7.90
2006,04,25,05,32,7.80
2006,04,25,05,33,7.80
2006,04,25,05,34,7.80
2006,04,25,05,35,7.80
2006,04,25,05,36,7.70
2006,04,25,05,37,7.70
2006,04,25,05,38,7.60
2006,04,25,05,39,7.60
2006,04,25,05,40,7.60
2006,04,25,05,41,7.60
2006,04,25,05,42,7.60
2006,04,25,05,43,7.60
2006,04,25,05,44,7.60
2006,04,25,05,45,7.70
2006,04,25,05,46,7.70
2006,04,25,05,47,7.70
2006,04,25,05,48,7.80
2006,04,25,05,49,7.80
2006,04,25,05,50,7.80
2006,04,25,05,51,7.80
2006,04,25,05,52,7.80
2006,04,25,05,53,7.80
2006,04,25,05,54,7.80
2006,04,25,05,55,7.90
2006,04,25,05,56,7.90
2006,04,25,05,57,7.90
2006,04,25,05,58,7.90
2006,04,25,05,59,8.00
2006,04,25,06,00,8.00
2006,04,25,06,01,8.00
2006,04,25,06,02,8.10
2006,04,25,06,03,8.10
2006,04,25,06,04,8.20
2006,04,25,06,05,8.20
2006,04,25,06,06,8.30
2006,04,25,06,07,8.40
2006,04,25,06,08,8.40
2006,04,25,06,09,8.50
2006,04,25,06,10,8.50
2006,04,25,06,11,8.60
2006,04,25,06,12,8.60
2006,04,25,06,13,8.60
2006,04,25,06,14,8.60
2006,04,25,06,15,8.60
2006,04,25,06,16,8.70
2006,04,25,06,17,8.70
2006,04,25,06,18,8.70
2006,04,25,06,19,8.70
2006,04,25,06,20,8.70
2006,04,25,06,21,8.60
2006,04,25,06,22,8.40
2006,04,25,06,23,8.10
2006,04,25,06,24,7.90
2006,04,25,06,25,7.70
2006,04,25,06,26,7.50
2006,04,25,06,27,7.40
2006,04,25,06,28,7.30
2006,04,25,06,29,7.20
2006,04,25,06,30,7.10
2006,04,25,06,31,7.10
2006,04,25,06,32,7.00
2006,04,25,06,33,7.00
2006,04,25,06,34,6.90
2006,04,25,06,35,6.90
2006,04,25,06,36,6.90
2006,04,25,06,37,6.80
2006,04,25,06,38,6.80
2006,04,25,06,39,6.80
2006,04,25,06,40,6.80
2006,04,25,06,41,6.80
2006,04,25,06,42,6.80
2006,04,25,06,43,6.80
2006,04,25,06,44,6.80
2006,04,25,06,45,6.90
2006,04,25,06,46,6.90
2006,04,25,06,47,6.90
2006,04,25,06,48,7.00
2006,04,25,06,49,7.00
2006,04,25,06,50,7.00
2006,04,25,06,51,7.10
2006,04,25,06,52,7.20
2006,04,25,06,53,7.20
2006,04,25,06,54,7.20
2006,04,25,06,55,7.30
2006,04,25,06,56,7.30
2006,04,25,06,57,7.40
2006,04,25,06,58,7.40
2006,04,25,06,59,7.50
2006,04,25,07,00,7.50
2006,04,25,07,01,7.60
2006,04,25,07,02,7.80
2006,04,25,07,03,7.80
2006,04,25,07,04,7.90
2006,04,25,07,05,8.00
2006,04,25,07,06,8.00
2006,04,25,07,07,8.00
2006,04,25,07,08,8.00
2006,04,25,07,09,8.10
2006,04,25,07,10,8.10
2006,04,25,07,11,8.10
2006,04,25,07,12,8.10
2006,04,25,07,13,8.10
2006,04,25,07,14,8.10
2006,04,25,07,15,8.10
2006,04,25,07,16,8.10
2006,04,25,07,17,8.10
2006,04,25,07,18,8.20
2006,04,25,07,19,8.20
2006,04,25,07,20,8.20
2006,04,25,07,21,8.20
2006,04,25,07,22,8.30
2006,04,25,07,23,8.30
2006,04,25,07,24,8.50
2006,04,25,07,25,8.60
2006,04,25,07,26,8.70
2006,04,25,07,27,8.80
2006,04,25,07,28,8.80
2006,04,25,07,29,8.90
2006,04,25,07,30,9.00
2006,04,25,07,31,9.00
2006,04,25,07,32,9.10
2006,04,25,07,33,9.20
2006,04,25,07,34,9.20
2006,04,25,07,35,9.20
2006,04,25,07,36,9.20
2006,04,25,07,37,9.20
2006,04,25,07,38,9.30
2006,04,25,07,39,9.40
2006,04,25,07,40,9.40
2006,04,25,07,41,9.40
2006,04,25,07,42,9.50
2006,04,25,07,43,9.50
2006,04,25,07,44,9.60
2006,04,25,07,45,9.60
2006,04,25,07,46,9.70
2006,04,25,07,47,9.80
2006,04,25,07,48,9.90
2006,04,25,07,49,10.00
2006,04,25,07,50,10.20
2006,04,25,07,51,10.40
2006,04,25,07,52,10.60
2006,04,25,07,53,10.70
2006,04,25,07,54,10.80
2006,04,25,07,55,10.90
2006,04,25,07,56,11.10
2006,04,25,07,57,11.20
2006,04,25,07,58,11.30
2006,04,25,07,59,11.40
2006,04,25,08,00,11.50
2006,04,25,08,01,11.60
2006,04,25,08,02,11.70
2006,04,25,08,03,11.70
2006,04,25,08,04,11.80
2006,04,25,08,05,11.90
2006,04,25,08,06,12.00
2006,04,25,08,07,12.10
2006,04,25,08,08,12.10
2006,04,25,08,09,12.20
2006,04,25,08,10,12.30
2006,04,25,08,11,12.40
2006,04,25,08,12,12.50
2006,04,25,08,13,12.60
2006,04,25,08,14,12.70
2006,04,25,08,15,12.70
2006,04,25,08,16,12.80
2006,04,25,08,17,12.90
2006,04,25,08,18,13.00
2006,04,25,08,19,13.10
2006,04,25,08,20,13.20
2006,04,25,08,21,13.30
2006,04,25,08,22,13.30
2006,04,25,08,23,13.40
2006,04,25,08,24,13.50
2006,04,25,08,25,13.50
2006,04,25,08,26,13.40
2006,04,25,08,27,13.40
2006,04,25,08,28,13.40
2006,04,25,08,29,13.30
2006,04,25,08,30,13.40
2006,04,25,08,31,13.40
2006,04,25,08,32,13.40
2006,04,25,08,33,13.50
2006,04,25,08,34,13.60
2006,04,25,08,35,13.70
2006,04,25,08,36,13.70
2006,04,25,08,37,13.70
2006,04,25,08,38,13.70
2006,04,25,08,39,13.70
2006,04,25,08,40,13.70
2006,04,25,08,41,13.60
2006,04,25,08,42,13.60
2006,04,25,08,43,13.60
2006,04,25,08,44,13.60
2006,04,25,08,45,13.70
2006,04,25,08,46,13.70
2006,04,25,08,47,13.70
2006,04,25,08,48,13.70
2006,04,25,08,49,13.70
2006,04,25,08,50,13.80
2006,04,25,08,51,13.80
2006,04,25,08,52,13.90
2006,04,25,08,53,13.90
2006,04,25,08,54,13.70
2006,04,25,08,55,13.70
2006,04,25,08,56,13.70
2006,04,25,08,57,13.70
2006,04,25,08,58,13.80
2006,04,25,08,59,13.80
2006,04,25,09,00,13.80
2006,04,25,09,01,13.80
2006,04,25,09,02,13.90
2006,04,25,09,03,13.90
2006,04,25,09,04,13.90
2006,04,25,09,05,13.90
2006,04,25,09,06,14.00
2006,04,25,09,07,14.00
2006,04,25,09,08,14.00
2006,04,25,09,09,14.00
2006,04,25,09,10,14.00
2006,04,25,09,11,14.10
2006,04,25,09,12,14.20
2006,04,25,09,13,14.20
2006,04,25,09,14,14.30
2006,04,25,09,15,14.30
2006,04,25,09,16,14.20
2006,04,25,09,17,14.20
2006,04,25,09,18,14.20
2006,04,25,09,19,14.20
2006,04,25,09,20,14.20
2006,04,25,09,21,14.30
2006,04,25,09,22,14.40
2006,04,25,09,23,14.50
2006,04,25,09,24,14.60
2006,04,25,09,25,14.60
2006,04,25,09,26,14.60
2006,04,25,09,27,14.70
2006,04,25,09,28,14.80
2006,04,25,09,29,14.80
2006,04,25,09,30,14.80
2006,04,25,09,31,14.90
2006,04,25,09,32,14.90
2006,04,25,09,33,14.90
2006,04,25,09,34,14.90
2006,04,25,09,35,14.80
2006,04,25,09,36,14.80
2006,04,25,09,37,14.90
2006,04,25,09,38,14.90
2006,04,25,09,39,15.00
2006,04,25,09,40,15.10
2006,04,25,09,41,15.20
2006,04,25,09,42,15.10
2006,04,25,09,43,15.10
2006,04,25,09,44,15.20
2006,04,25,09,45,15.10
2006,04,25,09,46,15.00
2006,04,25,09,47,14.90
2006,04,25,09,48,14.80
2006,04,25,09,49,14.80
2006,04,25,09,50,14.80
2006,04,25,09,51,14.90
2006,04,25,09,52,15.00
2006,04,25,09,53,15.00
2006,04,25,09,54,15.00
2006,04,25,09,55,15.00
2006,04,25,09,56,15.00
2006,04,25,09,57,15.00
2006,04,25,09,58,15.00
2006,04,25,09,59,15.00
2006,04,25,10,00,15.10
2006,04,25,10,01,15.10
2006,04,25,10,02,15.20
2006,04,25,10,03,15.30
2006,04,25,10,04,15.20
2006,04,25,10,05,15.20
2006,04,25,10,06,15.20
2006,04,25,10,07,15.20
2006,04,25,10,08,15.30
2006,04,25,10,09,15.30
2006,04,25,10,10,15.30
2006,04,25,10,11,15.20
2006,04,25,10,12,15.20
2006,04,25,10,13,15.30
2006,04,25,10,14,15.30
2006,04,25,10,15,15.50
2006,04,25,10,16,15.50
2006,04,25,10,17,15.60
2006,04,25,10,18,15.70
2006,04,25,10,19,15.80
2006,04,25,10,20,15.80
2006,04,25,10,21,15.80
2006,04,25,10,22,15.70
2006,04,25,10,23,15.70
2006,04,25,10,24,15.80
2006,04,25,10,25,15.90
2006,04,25,10,26,15.90
2006,04,25,10,27,16.00
2006,04,25,10,28,16.10
2006,04,25,10,29,16.10
2006,04,25,10,30,16.10
2006,04,25,10,31,16.10
2006,04,25,10,32,16.10
2006,04,25,10,33,16.20
2006,04,25,10,34,16.20
2006,04,25,10,35,16.30
2006,04,25,10,36,16.30
2006,04,25,10,37,16.40
2006,04,25,10,38,16.40
2006,04,25,10,39,16.40
2006,04,25,10,40,16.40
2006,04,25,10,41,16.40
2006,04,25,10,42,16.40
2006,04,25,10,43,16.40
2006,04,25,10,44,16.40
2006,04,25,10,45,16.40
2006,04,25,10,46,16.40
2006,04,25,10,47,16.40
2006,04,25,10,48,16.40
2006,04,25,10,49,16.40
2006,04,25,10,50,16.40
2006,04,25,10,51,16.30
2006,04,25,10,52,16.00
2006,04,25,10,53,15.80
2006,04,25,10,54,15.70
2006,04,25,10,55,15.60
2006,04,25,10,56,15.50
2006,04,25,10,57,15.40
2006,04,25,10,58,15.40
2006,04,25,10,59,15.50
2006,04,25,11,00,15.50
2006,04,25,11,01,15.50
2006,04,25,11,02,15.50
2006,04,25,11,03,15.50
2006,04,25,11,04,15.50
2006,04,25,11,05,15.30
2006,04,25,11,06,15.30
2006,04,25,11,07,15.30
2006,04,25,11,08,15.30
2006,04,25,11,09,15.40
2006,04,25,11,10,15.40
2006,04,25,11,11,15.40
2006,04,25,11,12,15.50
2006,04,25,11,13,15.50
2006,04,25,11,14,15.40
2006,04,25,11,15,15.30
2006,04,25,11,16,15.30
2006,04,25,11,17,15.20
2006,04,25,11,18,15.00
2006,04,25,11,19,14.90
2006,04,25,11,20,14.90
2006,04,25,11,21,14.90
2006,04,25,11,22,15.00
2006,04,25,11,23,15.10
2006,04,25,11,24,15.20
2006,04,25,11,25,15.20
2006,04,25,11,26,15.20
2006,04,25,11,27,15.20
2006,04,25,11,28,15.20
2006,04,25,11,29,15.10
2006,04,25,11,30,15.10
2006,04,25,11,31,15.10
2006,04,25,11,32,15.20
2006,04,25,11,33,15.30
2006,04,25,11,34,15.30
2006,04,25,11,35,15.30
2006,04,25,11,36,15.30
2006,04,25,11,37,15.40
2006,04,25,11,38,15.40
2006,04,25,11,39,15.40
2006,04,25,11,40,15.40
2006,04,25,11,41,15.50
2006,04,25,11,42,15.50
2006,04,25,11,43,15.60
2006,04,25,11,44,15.70
2006,04,25,11,45,15.80
2006,04,25,11,46,15.90
2006,04,25,11,47,16.10
2006,04,25,11,48,16.10
2006,04,25,11,49,16.10
2006,04,25,11,50,15.90
2006,04,25,11,51,15.80
2006,04,25,11,52,15.60
2006,04,25,11,53,15.60
2006,04,25,11,54,15.70
2006,04,25,11,55,15.70
2006,04,25,11,56,15.80
2006,04,25,11,57,15.90
2006,04,25,11,58,16.00
2006,04,25,11,59,16.10
2006,04,25,12,00,16.10
2006,04,25,12,01,16.20
2006,04,25,12,02,16.20
2006,04,25,12,03,16.10
2006,04,25,12,04,16.10
2006,04,25,12,05,16.10
2006,04,25,12,06,16.10
2006,04,25,12,07,16.10
2006,04,25,12,08,15.90
2006,04,25,12,09,15.90
2006,04,25,12,10,16.00
2006,04,25,12,11,16.10
2006,04,25,12,12,16.30
2006,04,25,12,13,16.40
2006,04,25,12,14,16.60
2006,04,25,12,15,16.70
2006,04,25,12,16,16.70
2006,04,25,12,17,16.70
2006,04,25,12,18,16.70
2006,04,25,12,19,16.70
2006,04,25,12,20,16.70
2006,04,25,12,21,16.80
2006,04,25,12,22,16.90
2006,04,25,12,23,17.00
2006,04,25,12,24,16.90
2006,04,25,12,25,16.90
2006,04,25,12,26,16.80
2006,04,25,12,27,16.60
2006,04,25,12,28,16.50
2006,04,25,12,29,16.40
2006,04,25,12,30,16.40
2006,04,25,12,31,16.40
2006,04,25,12,32,16.30
2006,04,25,12,33,16.20
2006,04,25,12,34,16.10
2006,04,25,12,35,16.00
2006,04,25,12,36,15.80
2006,04,25,12,37,15.80
2006,04,25,12,38,15.90
2006,04,25,12,39,16.10
2006,04,25,12,40,16.20
2006,04,25,12,41,16.20
2006,04,25,12,42,16.20
2006,04,25,12,43,16.10
2006,04,25,12,44,16.20
2006,04,25,12,45,16.30
2006,04,25,12,46,16.40
2006,04,25,12,47,16.50
2006,04,25,12,48,16.70
2006,04,25,12,49,16.70
2006,04,25,12,50,16.70
2006,04,25,12,51,16.70
2006,04,25,12,52,16.80
2006,04,25,12,53,16.80
2006,04,25,12,54,16.80
2006,04,25,12,55,16.90
2006,04,25,12,56,16.90
2006,04,25,12,57,17.00
2006,04,25,12,58,17.00
2006,04,25,12,59,17.00
2006,04,25,13,00,16.90
2006,04,25,13,01,16.80
2006,04,25,13,02,16.90
2006,04,25,13,03,16.90
2006,04,25,13,04,16.80
2006,04,25,13,05,16.90
2006,04,25,13,06,16.90
2006,04,25,13,07,16.80
2006,04,25,13,08,16.80
2006,04,25,13,09,16.80
2006,04,25,13,10,16.80
2006,04,25,13,11,16.70
2006,04,25,13,12,16.60
2006,04,25,13,13,16.70
2006,04,25,13,14,16.70
2006,04,25,13,15,16.70
2006,04,25,13,16,16.70
2006,04,25,13,17,16.60
2006,04,25,13,18,16.60
2006,04,25,13,19,16.60
2006,04,25,13,20,16.60
2006,04,25,13,21,16.60
2006,04,25,13,22,16.60
2006,04,25,13,23,16.60
2006,04,25,13,24,16.60
2006,04,25,13,25,16.50
2006,04,25,13,26,16.50
2006,04,25,13,27,16.60
2006,04,25,13,28,16.60
2006,04,25,13,29,16.70
2006,04,25,13,30,16.80
2006,04,25,13,31,17.00
2006,04,25,13,32,17.10
2006,04,25,13,33,17.20
2006,04,25,13,34,17.20
2006,04,25,13,35,17.20
2006,04,25,13,36,17.10
2006,04,25,13,37,17.10
2006,04,25,13,38,17.10
2006,04,25,13,39,17.20
2006,04,25,13,40,17.10
2006,04,25,13,41,17.10
2006,04,25,13,42,17.20
2006,04,25,13,43,17.20
2006,04,25,13,44,17.30
2006,04,25,13,45,17.30
2006,04,25,13,46,17.30
2006,04,25,13,47,17.30
2006,04,25,13,48,17.30
2006,04,25,13,49,17.30
2006,04,25,13,50,17.30
2006,04,25,13,51,17.30
2006,04,25,13,52,17.20
2006,04,25,13,53,17.20
2006,04,25,13,54,17.20
2006,04,25,13,55,17.20
2006,04,25,13,56,17.30
2006,04,25,13,57,17.30
2006,04,25,13,58,17.30
2006,04,25,13,59,17.40
2006,04,25,14,00,17.50
2006,04,25,14,01,17.60
2006,04,25,14,02,17.70
2006,04,25,14,03,17.70
2006,04,25,14,04,17.60
2006,04,25,14,05,17.70
2006,04,25,14,06,17.80
2006,04,25,14,07,17.80
2006,04,25,14,08,17.90
2006,04,25,14,09,17.90
2006,04,25,14,10,17.90
2006,04,25,14,11,18.10
2006,04,25,14,12,18.20
2006,04,25,14,13,18.40
2006,04,25,14,14,18.50
2006,04,25,14,15,18.50
2006,04,25,14,16,18.40
2006,04,25,14,17,18.40
2006,04,25,14,18,18.30
2006,04,25,14,19,18.20
2006,04,25,14,20,18.20
2006,04,25,14,21,18.20
2006,04,25,14,22,18.20
2006,04,25,14,23,18.10
2006,04,25,14,24,18.10
2006,04,25,14,25,18.10
2006,04,25,14,26,18.20
2006,04,25,14,27,18.20
2006,04,25,14,28,18.20
2006,04,25,14,29,18.10
2006,04,25,14,30,18.10
2006,04,25,14,31,18.20
2006,04,25,14,32,18.20
2006,04,25,14,33,18.30
2006,04,25,14,34,18.30
2006,04,25,14,35,18.40
2006,04,25,14,36,18.50
2006,04,25,14,37,18.40
2006,04,25,14,38,18.30
2006,04,25,14,39,18.40
2006,04,25,14,40,18.40
2006,04,25,14,41,18.50
2006,04,25,14,42,18.40
2006,04,25,14,43,18.40
2006,04,25,14,44,18.40
2006,04,25,14,45,18.40
2006,04,25,14,46,18.40
2006,04,25,14,47,18.40
2006,04,25,14,48,18.50
2006,04,25,14,49,18.50
2006,04,25,14,50,18.50
2006,04,25,14,51,18.60
2006,04,25,14,52,18.70
2006,04,25,14,53,18.80
2006,04,25,14,54,18.70
2006,04,25,14,55,18.60
2006,04,25,14,56,18.60
2006,04,25,14,57,18.60
2006,04,25,14,58,18.60
2006,04,25,14,59,18.50
2006,04,25,15,00,18.40
2006,04,25,15,01,18.30
2006,04,25,15,02,18.20
2006,04,25,15,03,18.20
2006,04,25,15,04,18.20
2006,04,25,15,05,18.10
2006,04,25,15,06,18.10
2006,04,25,15,07,18.10
2006,04,25,15,08,18.10
2006,04,25,15,09,18.00
2006,04,25,15,10,17.90
2006,04,25,15,11,17.80
2006,04,25,15,12,17.80
2006,04,25,15,13,17.70
2006,04,25,15,14,17.70
2006,04,25,15,15,17.70
2006,04,25,15,16,17.70
2006,04,25,15,17,17.70
2006,04,25,15,18,17.60
2006,04,25,15,19,17.60
2006,04,25,15,20,17.60
2006,04,25,15,21,17.70
2006,04,25,15,22,17.70
2006,04,25,15,23,17.60
2006,04,25,15,24,17.40
2006,04,25,15,25,17.30
2006,04,25,15,26,17.30
2006,04,25,15,27,17.30
2006,04,25,15,28,17.30
2006,04,25,15,29,17.30
2006,04,25,15,30,17.30
2006,04,25,15,31,17.20
2006,04,25,15,32,17.20
2006,04,25,15,33,17.20
2006,04,25,15,34,17.20
2006,04,25,15,35,17.30
2006,04,25,15,36,17.20
2006,04,25,15,37,17.10
2006,04,25,15,38,17.20
2006,04,25,15,39,17.20
2006,04,25,15,40,17.30
2006,04,25,15,41,17.30
2006,04,25,15,42,17.40
2006,04,25,15,43,17.50
2006,04,25,15,44,17.50
2006,04,25,15,45,17.50
2006,04,25,15,46,17.40
2006,04,25,15,47,17.30
2006,04,25,15,48,17.30
2006,04,25,15,49,17.30
2006,04,25,15,50,17.30
2006,04,25,15,51,17.30
2006,04,25,15,52,17.30
2006,04,25,15,53,17.30
2006,04,25,15,54,17.30
2006,04,25,15,55,17.40
2006,04,25,15,56,17.50
2006,04,25,15,57,17.50
2006,04,25,15,58,17.60
2006,04,25,15,59,17.60
2006,04,25,16,00,17.60
2006,04,25,16,01,17.70
2006,04,25,16,02,17.70
2006,04,25,16,03,17.70
2006,04,25,16,04,17.70
2006,04,25,16,05,17.70
2006,04,25,16,06,17.70
2006,04,25,16,07,17.70
2006,04,25,16,08,17.70
2006,04,25,16,09,17.70
2006,04,25,16,10,17.60
2006,04,25,16,11,17.60
2006,04,25,16,12,17.60
2006,04,25,16,13,17.50
2006,04,25,16,14,17.50
2006,04,25,16,15,17.40
2006,04,25,16,16,17.40
2006,04,25,16,17,17.40
2006,04,25,16,18,17.40
2006,04,25,16,19,17.40
2006,04,25,16,20,17.30
2006,04,25,16,21,17.30
2006,04,25,16,22,17.30
2006,04,25,16,23,17.30
2006,04,25,16,24,17.30
2006,04,25,16,25,17.30
2006,04,25,16,26,17.30
2006,04,25,16,27,17.40
2006,04,25,16,28,17.50
2006,04,25,16,29,17.60
2006,04,25,16,30,17.70
2006,04,25,16,31,17.70
2006,04,25,16,32,17.70
2006,04,25,16,33,17.70
2006,04,25,16,34,17.70
2006,04,25,16,35,17.70
2006,04,25,16,36,17.70
2006,04,25,16,37,17.70
2006,04,25,16,38,17.70
2006,04,25,16,39,17.60
2006,04,25,16,40,17.70
2006,04,25,16,41,17.70
2006,04,25,16,42,17.60
2006,04,25,16,43,17.60
2006,04,25,16,44,17.70
2006,04,25,16,45,17.60
2006,04,25,16,46,17.60
2006,04,25,16,47,17.60
2006,04,25,16,48,17.60
2006,04,25,16,49,17.50
2006,04,25,16,50,17.50
2006,04,25,16,51,17.40
2006,04,25,16,52,17.40
2006,04,25,16,53,17.40
2006,04,25,16,54,17.30
2006,04,25,16,55,17.30
2006,04,25,16,56,17.40
2006,04,25,16,57,17.40
2006,04,25,16,58,17.40
2006,04,25,16,59,17.40
2006,04,25,17,00,17.40
2006,04,25,17,01,17.30
2006,04,25,17,02,17.30
2006,04,25,17,03,17.20
2006,04,25,17,04,17.10
2006,04,25,17,05,17.10
2006,04,25,17,06,17.10
2006,04,25,17,07,17.20
2006,04,25,17,08,17.20
2006,04,25,17,09,17.20
2006,04,25,17,10,17.20
2006,04,25,17,11,17.20
2006,04,25,17,12,17.20
2006,04,25,17,13,17.30
2006,04,25,17,14,17.40
2006,04,25,17,15,17.40
2006,04,25,17,16,17.40
2006,04,25,17,17,17.30
2006,04,25,17,18,17.30
2006,04,25,17,19,17.30
2006,04,25,17,20,17.30
2006,04,25,17,21,17.30
2006,04,25,17,22,17.20
2006,04,25,17,23,17.20
2006,04,25,17,24,17.10
2006,04,25,17,25,17.10
2006,04,25,17,26,17.00
2006,04,25,17,27,17.00
2006,04,25,17,28,17.00